Location: Buckland
(65.9785°N, 161.1281°W)
Time: 06:59:51
(UTC+00:00)

Transit 2A Rocket - Pass Details

Date: 03 December 2020
Orbit: 592 x 910 km, 66.7° (Epoch: 21 January)

Event Time Altitude Azimuth Distance (km) Brightness Sun altitude
Exits shadow 14:13:34 36° 77° (ENE) 1,203 6.4 -34.3°
Drops below altitude 10° 14:16:30 10° 70° (ENE) 2,242 8.2 -34.0°
Sets 14:18:46 0° 69° (ENE) 3,115 9.2 -33.8°
